Regional Weather Roundup
Issued by NWS

Home | Current Version | Previous Version | Text Only | Print | Product List | Glossary On
Versions: 1 2 3 4 5 6 7 8 9 10 11 12 13 14 15 16 17 18 19 20 21 22 23 24 25 26 27 28 29 30 31 32 33 34 35 36 37 38 39 40 41 42 43 44 45 46 47 48 49 50
000
ASUS43 KDTX 261810
RWRMI
MICHIGAN HOURLY REGIONAL WEATHER ROUNDUP
NATIONAL WEATHER SERVICE DETROIT/PONTIAC MI
200 PM EDT THU MAR 26 2015

NOTE: "FAIR" INDICATES FEW OR NO CLOUDS BELOW 12,000 FEET WITH NO
SIGNIFICANT WEATHER AND/OR OBSTRUCTION TO VISIBILITY.

MIZ047>049-052>055-059>063-066>070-074>076-081>083-261900-
SOUTHEAST LOWER MICHIGAN

CITY           SKY/WX    TMP DP  RH WIND       PRES   REMARKS
ADRIAN         CLOUDY    41  28  60 NW13      29.86F
6HR MIN TEMP:  33; 6HR MAX TEMP:  41; 6HR PCP: TRACE;

ALMA           CLOUDY    40  24  54 W10G16    29.86F
ANN ARBOR      CLOUDY    41  28  60 NW9G18    29.85S
BAD AXE        CLOUDY    39  26  59 NW12      29.82F
6HR MIN TEMP:  34; 6HR MAX TEMP:  39;

DETROIT CITY   CLOUDY    44  28  53 W8        29.84F
6HR MIN TEMP:  39; 6HR MAX TEMP:  44; 6HR PCP:  0.03;

DETROIT        CLOUDY    43  29  57 W13       29.85F
6HR MIN TEMP:  37; 6HR MAX TEMP:  43; 6HR PCP:  0.07;

FLINT          CLOUDY    42  27  55 NW12      29.85S
6HR MIN TEMP:  37; 6HR MAX TEMP:  43;

GROSSE ILE     CLOUDY    43  32  65 NW7       29.83F
HILLSDALE      CLOUDY    40  27  58 NW15      29.85F
6HR MIN TEMP:  35; 6HR MAX TEMP:  40;

HOWELL         CLOUDY    40  26  57 W10       29.84F
6HR MIN TEMP:  35; 6HR MAX TEMP:  40;


CITY           SKY/WX    TMP DP  RH WIND       PRES   REMARKS
JACKSON        CLOUDY    41  25  53 NW12      29.85F
6HR MIN TEMP:  35; 6HR MAX TEMP:  41;

LAMBERTVILLE   CLOUDY    43  32  65 NW8       29.86F
LANSING        CLOUDY    40  25  55 W17       29.87F
6HR MIN TEMP:  34; 6HR MAX TEMP:  40;

LAPEER         NOT AVBL
MASON          CLOUDY    39  25  55 W14       29.86S
6HR MIN TEMP:  34; 6HR MAX TEMP:  40;

MONROE         CLOUDY    41  32  70 W12       29.84F
MT. CLEMENS    CLOUDY    42  28  57 W9        29.81F
6HR MIN TEMP:  37; 6HR MAX TEMP:  42; 6HR PCP:  0.03;

PONTIAC        CLOUDY    40  26  57 NW10      29.83S
6HR MIN TEMP:  36; 6HR MAX TEMP:  40;

PORT HOPE        N/A     40  27  59 NW12      29.80F
6HR MIN TEMP:  35; 6HR MAX TEMP:  40;

PORT HURON     CLOUDY    41  30  65 NW10      29.83S
TRI CITIES     CLOUDY    40  25  55 W12       29.85F
6HR MIN TEMP:  36; 6HR MAX TEMP:  41;

YPSILANTI      CLOUDY    45  29  53 NW13      29.85S
6HR MIN TEMP:  39; 6HR MAX TEMP:  45; 6HR PCP:  0.04;

$$
MIZ043>046-050>051-056>058-064>065-071>073-077>080-261900-
SOUTHWEST LOWER MICHIGAN

CITY           SKY/WX    TMP DP  RH WIND       PRES   REMARKS
BATTLE CREEK   CLOUDY    41  24  51 NW15      29.88F
6HR MIN TEMP:  35; 6HR MAX TEMP:  41;

BENTON HARBOR  CLOUDY    39  26  59 W10G22    29.95S
6HR MIN TEMP:  34; 6HR MAX TEMP:  39;

BIG RAPIDS     CLOUDY    36  23  58 NW12G17   29.86S
6HR MIN TEMP:  35; 6HR MAX TEMP:  37;

COLDWATER      CLOUDY    40  24  52 NW12      29.88S
6HR MIN TEMP:  35; 6HR MAX TEMP:  41;

HOLLAND        CLOUDY    39  28  64 NW13G20   29.93F
6HR MIN TEMP:  36; 6HR MAX TEMP:  40;

GRAND RAPIDS   CLOUDY    38  24  57 NW13      29.89F
6HR MIN TEMP:  34; 6HR MAX TEMP:  39;

KALAMAZOO      CLOUDY    41  23  48 NW16      29.90F
6HR MIN TEMP:  35; 6HR MAX TEMP:  42;

MARSHALL       CLOUDY    40  25  55 W10G16    29.87F
MUSKEGON       CLOUDY    39  22  50 NW16      29.92S
6HR MIN TEMP:  36; 6HR MAX TEMP:  40;

$$
MIZ016>042-261900-
NORTHERN LOWER MICHIGAN

CITY           SKY/WX    TMP DP  RH WIND       PRES   REMARKS
ALPENA         CLOUDY    39  25  57 W12G20    29.79S
6HR MIN TEMP:  34; 6HR MAX TEMP:  41;

BEAVER ISLAND  MOSUNNY   30  22  74 NW14G24   29.88R
6HR MIN TEMP:  28; 6HR MAX TEMP:  33;

BELLAIRE       LGT SNOW  31  26  83 W15G22    29.89R
6HR MIN TEMP:  31; 6HR MAX TEMP:  36;

CADILLAC       CLOUDY    33  24  72 W13       29.84S
CHARLEVOIX     LGT SNOW  28  26  91 W13       29.91R
6HR MIN TEMP:  28; 6HR MAX TEMP:  34;

FRANKFORT      CLOUDY    33  24  67 N13G20    29.93R
GAYLORD        LGT SNOW  31  28  89 W9G22     29.80S FOG
6HR MIN TEMP:  31; 6HR MAX TEMP:  32; 6HR PCP: TRACE;

GRAYLING       CLOUDY    34  25  68 W16G24    29.83S
6HR MIN TEMP:  33; 6HR MAX TEMP:  35;

HARBOR SPRINGS LGT SNOW  32  28  85 W9        29.84R
HOUGHTON LAKE  CLOUDY    34  26  72 NW13G23   29.83S
6HR MIN TEMP:  33; 6HR MAX TEMP:  36;

MANISTEE       CLOUDY    34  21  60 N16G22    29.92S
OSCODA         CLOUDY    40  27  58 W7        29.79F
PELLSTON       LGT SNOW  31  28  89 NW15G25   29.83R FOG
6HR MIN TEMP:  31; 6HR MAX TEMP:  35; 6HR PCP:  0.01;

TRAVERSE CITY  FLURRIES  31  25  78 NW15G22   29.89R
6HR MIN TEMP:  31; 6HR MAX TEMP:  36; 6HR PCP: TRACE;

$$
MIZ007>008-015-261900-
EASTERN UPPER MICHIGAN

CITY           SKY/WX    TMP DP  RH WIND       PRES   REMARKS
KINROSS        CLOUDY    34  28  80 NW17      29.79S
6HR MIN TEMP:  32; 6HR MAX TEMP:  36;

MACKINAC ISLAN LGT SNOW  33  32  96 NW7       29.80R
6HR MIN TEMP:  32; 6HR MAX TEMP:  34;

NEWBERRY       CLOUDY    24  20  82 NW13G25   29.86R
S. S. MARIE    LGT SNOW  32  28  85 W13       29.79R FOG
6HR MIN TEMP:  31; 6HR MAX TEMP:  33; 6HR PCP:  0.03;

$$
MIZ004>006-011>014-085-261900-
CENTRAL UPPER MICHIGAN

CITY           SKY/WX    TMP DP  RH WIND       PRES   REMARKS
MANISTIQUE     CLOUDY    25  17  71 N23G31    29.91R
ESCANABA       CLOUDY    28  16  59 N13G20    29.94S
6HR MIN TEMP:  28; 6HR MAX TEMP:  34;

MENOMINEE      CLOUDY    30  16  55 N12G17    29.95R
6HR MIN TEMP:  30; 6HR MAX TEMP:  36;

SAWYER-GWINN   LGT SNOW  19  14  79 N18       29.94S
$$
MIZ001>003-009>011-084-261900-
WESTERN UPPER MICHIGAN

CITY           SKY/WX    TMP DP  RH WIND       PRES   REMARKS
IRON MOUNTAIN  CLOUDY    24  12  60 N20G30    29.95R
6HR MIN TEMP:  24; 6HR MAX TEMP:  29; 6HR PCP: TRACE;

HOUGHTON       LGT SNOW  17   8  67 N16G28    30.04R
6HR MIN TEMP:  16; 6HR MAX TEMP:  18; 6HR PCP: TRACE;

COPPER HARBOR    N/A     19  11  70 NE17G26   30.04R
6HR MIN TEMP:  18; 6HR MAX TEMP:  22;

IRONWOOD       CLOUDY    19  16  86 N14G20    30.05R
6HR MIN TEMP:  19; 6HR MAX TEMP:  21;

$$

ABBREVIATIONS USED IN REMARKS
   TC - TEMPERATURE IN CELSIUS
  WCI - WIND CHILL INDEX
   HX - HEAT INDEX
  VSB - VISIBILITY



USA.gov is the U.S. government's official web portal to all federal, state and local government web resources and services.